{"data":{"norad_id":53229,"intl_designator":"2022-084AS","name":"STARLINK-4367","alt_names":[],"object_type":"PAYLOAD","status":"ACTIVE","operator":null,"country":"US","launch_date":"2022-07-22","launch_site_code":"AFWTR","launch_vehicle":null,"mission":null,"orbit_class":"UNKNOWN","rcs_meters":null,"size_class":null,"mass_kg":null,"dimensions":null,"purposes":["comms"],"wikipedia_slug":null,"has_3d_model":false,"image_url":null,"decayed_at":null,"tle_current":{"epoch":"2026-05-25T02:44:57.564096Z","epoch_age_seconds":58455,"freshness":"FRESH","line1":"1 53229U 22084AS  26145.11455514 -.00000969  00000+0 -63101-4 0  9991","line2":"2 53229  97.4502 206.1616 0002126 124.2871 235.8558 15.05655406210880","mean_motion":15.05655406,"eccentricity":0.0002126,"inclination_deg":97.4502,"raan_deg":206.1616,"arg_perigee_deg":124.2871,"mean_anomaly_deg":235.8558,"bstar":-6.3101e-5,"rev_number":21088,"period_min":95.639413524611,"perigee_km":548.02175724754,"apogee_km":550.96738619183,"semimajor_km":6927.6315717197,"source":"CELESTRAK","updated_at":"2026-05-25T13:38:17.357970Z"}}}